Location: Lane
(33.5226°N, 79.8788°W)
Time: 06:52:13
(UTC+00:00)

Explorer 7 - Pass Details

Date: 03 October 2022
Orbit: 481 x 665 km, 50.3° (Epoch: 28 November)

Event Time Altitude Azimuth Distance (km) Brightness Sun altitude
Rises 14:34:24 0° 218° (SW) 2,961 10.6 37.7°
Reaches altitude 10° 14:36:44 10° 214° (SW) 2,065 9.9 38.0°
Maximum altitude 14:41:28 61° 135° (SE) 753 9.1 38.8°
Drops below altitude 10° 14:46:13 10° 55° (NE) 2,081 10.0 39.5°
Sets 14:48:35 0° 52° (NE) 2,985 10.7 39.9°
